FW8077 Weather Reports


time (UTC)temp
C
wind
direction
speed
KPH
gust
KPH
rain 1hr
cm
rain 24hr
cm
rain mn
cm
humidity
%
barometer
mb
20260504214805 16 325 11.3 16.1 0.00 0.00 0.00 38 1011.7
20260504214302 16 344 8.0 12.9 0.00 0.00 0.00 39 1011.7
20260504213759 16 292 11.3 14.5 0.00 0.00 0.00 39 1011.8
20260504213255 16 262 9.7 16.1 0.00 0.00 0.00 40 1011.7
20260504212752 16 314 4.8 14.5 0.00 0.00 0.00 43 1011.8
20260504212248 16 328 8.0 12.9 0.00 0.00 0.00 42 1011.8
20260504211746 16 307 11.3 12.9 0.00 0.00 0.00 42 1011.9
20260504211242 16 314 6.4 9.7 0.00 0.00 0.00 46 1011.9
20260504210740 15 169 0.0 3.2 0.00 0.00 0.00 46 1011.9
20260504210237 15 172 0.0 3.2 0.00 0.00 0.00 49 1011.8
20260504205733 14 137 0.0 3.2 0.00 0.00 0.00 50 1012.0
20260504205231 15 174 3.2 9.7 0.00 0.00 0.00 50 1012.4
20260504204729 15 292 4.8 4.8 0.00 0.00 0.00 44 1012.6
20260504204227 16 349 12.9 25.7 0.00 0.00 0.00 41 1012.8
20260504203727 16 316 3.2 8.0 0.00 0.00 0.00 39 1012.7
20260504203224 16 325 11.3 17.7 0.00 0.00 0.00 39 1012.6
20260504202723 16 320 8.0 11.3 0.00 0.00 0.00 39 1012.8
20260504202221 16 321 4.8 9.7 0.00 0.00 0.00 39 1012.8
20260504201718 16 35 6.4 12.9 0.00 0.00 0.00 38 1012.7
20260504201215 16 88 4.8 22.5 0.00 0.00 0.00 39 1012.6
20260504200713 16 31 8.0 16.1 0.00 0.00 0.00 39 1012.6
20260504200208 16 28 12.9 25.7 0.00 0.00 0.00 38 1012.4
20260504195705 16 71 6.4 20.9 0.00 0.00 0.00 38 1012.1
20260504195201 16 50 1.6 14.5 0.00 0.00 0.00 37 1012.4
20260504194658 16 328 12.9 20.9 0.00 0.00 0.00 36 1012.2
20260504194154 16 22 11.3 29.0 0.00 0.00 0.00 36 1012.5
20260504193651 16 320 14.5 35.4 0.00 0.00 0.00 36 1012.2
20260504193149 17 330 17.7 35.4 0.00 0.00 0.00 35 1012.0
20260504192646 17 305 11.3 46.7 0.00 0.00 0.00 34 1011.7
20260504192144 18 347 32.2 40.2 0.00 0.00 0.00 29 1011.5
20260504191642 18 273 8.0 9.7 0.00 0.00 0.00 30 1011.2
20260504191138 18 336 4.8 9.7 0.00 0.00 0.00 29 1011.2
20260504190634 18 8 4.8 9.7 0.00 0.00 0.00 29 1011.0
20260504190131 18 148 0.0 9.7 0.00 0.00 0.00 37 1010.9
20260504185628 18 43 3.2 11.3 0.00 0.00 0.00 30 1010.9
20260504185124 18 50 6.4 12.9 0.00 0.00 0.00 27 1010.6
20260504184620 19 5 12.9 17.7 0.00 0.00 0.00 26 1010.7
20260504184115 20 76 6.4 17.7 0.00 0.00 0.00 25 1011.0
20260504183613 21 170 0.0 1.6 0.00 0.00 0.00 24 1010.5
20260504183111 21 188 0.0 1.6 0.00 0.00 0.00 24 1010.4
20260504182608 20 204 1.6 4.8 0.00 0.00 0.00 25 1010.5
20260504182105 20 148 1.6 9.7 0.00 0.00 0.00 23 1010.4
20260504181602 20 16 3.2 17.7 0.00 0.00 0.00 23 1010.4
20260504181100 20 320 8.0 14.5 0.00 0.00 0.00 23 1010.3
20260504180559 21 307 8.0 17.7 0.00 0.00 0.00 23 1010.3
20260504180057 21 299 8.0 16.1 0.00 0.00 0.00 23 1010.3
20260504175554 21 8 8.0 14.5 0.00 0.00 0.00 24 1010.4
20260504175051 21 314 9.7 17.7 0.00 0.00 0.00 22 1010.6
20260504174549 22 325 17.7 29.0 0.00 0.00 0.00 23 1010.6
20260504174045 22 285 4.8 11.3 0.00 0.00 0.00 22 1010.6
20260504173542 22 269 8.0 12.9 0.00 0.00 0.00 22 1010.7
20260504173040 22 215 9.7 16.1 0.00 0.00 0.00 23 1010.6
20260504172536 22 194 4.8 16.1 0.00 0.00 0.00 21 1010.9
20260504172032 21 297 9.7 22.5 0.00 0.00 0.00 22 1010.6
20260504171529 22 254 12.9 17.7 0.00 0.00 0.00 22 1010.9
20260504171026 22 281 8.0 16.1 0.00 0.00 0.00 22 1010.7
20260504170522 21 321 11.3 25.7 0.00 0.00 0.00 21 1010.9
20260504160442 21 342 1.6 3.2 0.00 0.00 0.00 25 1011.0
20260504150906 15 169 1.6 1.6 0.00 0.00 0.00 44 1011.7
20260504150403 14 107 0.0 1.6 0.00 0.00 0.00 40 1011.7
20260504141333 10 171 1.6 4.8 0.00 0.00 0.00 58 1011.8
20260504140829 10 177 1.6 3.2 0.00 0.00 0.00 62 1012.0
20260504140325 10 172 0.0 3.2 0.00 0.00 0.00 62 1011.9
20260504130754 5 197 0.0 0.0 0.00 0.00 0.00 75 1012.0
20260504130250 5 189 0.0 1.6 0.00 0.00 0.00 75 1011.9
20260504120214 3 209 0.0 1.6 0.00 0.00 0.00 80 1012.0
20260504110641 3 224 0.0 1.6 0.00 0.00 0.00 78 1011.9
20260504110137 3 233 1.6 1.6 0.00 0.00 0.00 77 1012.0
20260504100603 4 203 0.0 0.0 0.00 0.00 0.00 74 1012.4
20260504081956 6 216 0.0 1.6 0.00 0.00 0.00 64 1013.2
20260504081454 6 155 1.6 1.6 0.00 0.00 0.00 67 1013.2
20260504080949 6 276 1.6 1.6 0.00 0.00 0.00 67 1013.3
20260504080446 6 276 1.6 1.6 0.00 0.00 0.00 65 1013.4
20260504050259 13 300 4.8 8.0 0.00 0.00 0.00 36 1014.3
20260504045756 13 330 4.8 4.8 0.00 0.00 0.00 35 1014.6
20260504045250 13 295 1.6 4.8 0.00 0.00 0.00 35 1014.6
20260504044748 14 274 1.6 4.8 0.00 0.00 0.00 35 1014.7
20260504044246 14 293 4.8 9.7 0.00 0.00 0.00 33 1014.4
20260504043743 15 321 4.8 9.7 0.00 0.00 0.00 33 1014.6
20260504043240 15 326 4.8 9.7 0.00 0.00 0.00 33 1014.6
20260504042738 15 4 4.8 11.3 0.00 0.00 0.00 33 1014.4
20260504042234 15 250 1.6 8.0 0.00 0.00 0.00 32 1014.7
20260504041730 15 278 3.2 9.7 0.00 0.00 0.00 32 1014.7
20260504041226 15 5 8.0 12.9 0.00 0.00 0.00 32 1014.4
20260504040722 16 323 6.4 11.3 0.00 0.00 0.00 31 1014.7
20260504040220 16 345 11.3 12.9 0.00 0.00 0.00 31 1014.6
20260504035716 16 14 9.7 12.9 0.00 0.00 0.00 29 1014.4
20260504035213 16 112 1.6 4.8 0.00 0.00 0.00 28 1014.3
20260504034711 16 332 4.8 12.9 0.00 0.00 0.00 28 1014.4
20260504034208 16 305 4.8 9.7 0.00 0.00 0.00 27 1014.6
20260504033705 17 326 9.7 11.3 0.00 0.00 0.00 26 1014.4
20260504033202 17 285 1.6 3.2 0.00 0.00 0.00 27 1014.3
20260504032659 17 322 3.2 4.8 0.00 0.00 0.00 25 1014.2
20260504032156 17 96 1.6 4.8 0.00 0.00 0.00 25 1014.2
20260504031653 17 60 1.6 4.8 0.00 0.00 0.00 25 1014.0
20260504031149 17 326 4.8 4.8 0.00 0.00 0.00 25 1013.8
20260504030646 17 83 0.0 1.6 0.00 0.00 0.00 26 1013.6
20260504030143 17 263 3.2 4.8 0.00 0.00 0.00 27 1013.5
20260504025640 17 287 1.6 3.2 0.00 0.00 0.00 27 1013.6
20260504025137 17 344 0.0 4.8 0.00 0.00 0.00 27 1013.4
20260504024634 16 17 1.6 8.0 0.00 0.00 0.00 31 1013.3
20260504024130 15 35 1.6 3.2 0.00 0.00 0.00 36 1013.5
20260504023627 16 260 0.0 0.0 0.00 0.00 0.00 35 1013.2
20260504023123 16 260 0.0 1.6 0.00 0.00 0.00 35 1013.2
20260504022620 16 260 0.0 1.6 0.00 0.00 0.00 31 1013.2
20260504022115 16 260 0.0 0.0 0.00 0.00 0.00 30 1013.1
20260504021614 16 261 0.0 0.0 0.00 0.00 0.00 30 1012.7
20260504021110 17 262 1.6 1.6 0.00 0.00 0.00 29 1013.1
20260504020607 17 289 0.0 0.0 0.00 0.00 0.00 31 1013.1
20260504020103 17 289 0.0 1.6 0.00 0.00 0.00 28 1012.9
20260504015600 17 291 0.0 0.0 0.00 0.00 0.00 29 1013.1
20260504015056 18 292 0.0 0.0 0.00 0.00 0.00 27 1012.9
20260504014552 18 350 0.0 0.0 0.00 0.00 0.00 27 1013.1
20260504014050 18 350 0.0 1.6 0.00 0.00 0.00 27 1012.9
20260504013547 20 350 0.0 0.0 0.00 0.00 0.00 25 1013.1
20260504013044 19 355 1.6 3.2 0.00 0.00 0.00 24 1013.1
20260504012541 20 198 0.0 1.6 0.00 0.00 0.00 25 1012.9
20260504012039 20 217 0.0 1.6 0.00 0.00 0.00 26 1013.1
20260504011536 20 223 0.0 3.2 0.00 0.00 0.00 23 1012.9
20260504011032 20 313 4.8 4.8 0.00 0.00 0.00 26 1013.1
20260504010527 20 163 0.0 3.2 0.00 0.00 0.00 22 1013.2
20260504010024 20 174 1.6 3.2 0.00 0.00 0.00 23 1013.1
20260504005521 20 278 3.2 4.8 0.00 0.00 0.00 24 1013.1
20260504005018 20 146 1.6 4.8 0.00 0.00 0.00 22 1012.8
20260504004516 21 172 0.0 0.0 0.00 0.00 0.00 22 1013.1
20260504004013 21 153 1.6 1.6 0.00 0.00 0.00 20 1013.2
20260504003509 21 168 0.0 0.0 0.00 0.00 0.00 22 1013.3
20260504003006 21 180 0.0 1.6 0.00 0.00 0.00 21 1013.2
20260504002503 21 198 0.0 1.6 0.00 0.00 0.00 21 1013.2
20260504002000 21 166 0.0 0.0 0.00 0.00 0.00 23 1013.2
20260504001457 21 174 0.0 0.0 0.00 0.00 0.00 23 1012.9
20260504000953 21 183 1.6 1.6 0.00 0.00 0.00 21 1013.3
20260504000451 21 198 0.0 0.0 0.00 0.00 0.00 19 1013.4
20260503235948 21 202 0.0 0.0 0.00 0.00 0.00 20 1013.2
20260503235446 21 202 1.6 3.2 0.00 0.00 0.00 19 1013.3
20260503234943 21 201 0.0 1.6 0.00 0.00 0.00 20 1013.3
20260503234440 21 309 3.2 8.0 0.00 0.00 0.00 18 1013.4
20260503233938 21 326 9.7 12.9 0.00 0.00 0.00 18 1013.4
20260503233434 21 328 11.3 20.9 0.00 0.00 0.00 18 1013.5
20260503232931 21 313 12.9 16.1 0.00 0.00 0.00 17 1013.5
20260503232428 21 301 4.8 12.9 0.00 0.00 0.00 18 1013.5
20260503231926 21 329 12.9 17.7 0.00 0.00 0.00 17 1013.4
20260503231423 21 226 14.5 22.5 0.00 0.00 0.00 16 1013.1
20260503230919 21 300 11.3 20.9 0.00 0.00 0.00 17 1013.4
20260503230416 22 236 9.7 20.9 0.00 0.00 0.00 17 1013.4
20260503225914 22 334 14.5 22.5 0.00 0.00 0.00 17 1013.2
20260503225410 22 306 9.7 20.9 0.00 0.00 0.00 17 1013.1
20260503224906 22 302 8.0 20.9 0.00 0.00 0.00 18 1013.3
20260503224403 22 311 6.4 9.7 0.00 0.00 0.00 17 1013.3
20260503223901 22 347 6.4 9.7 0.00 0.00 0.00 18 1013.1
20260503223359 22 23 4.8 8.0 0.00 0.00 0.00 18 1013.3
20260503222853 22 299 12.9 14.5 0.00 0.00 0.00 18 1013.5
20260503222352 22 321 3.2 12.9 0.00 0.00 0.00 18 1013.4
20260503221850 22 333 8.0 17.7 0.00 0.00 0.00 18 1013.3
20260503221349 22 343 14.5 17.7 0.00 0.00 0.00 18 1013.9
20260503220844 22 186 6.4 12.9 0.00 0.00 0.00 18 1013.8
20260503220341 22 14 8.0 16.1 0.00 0.00 0.00 18 1013.8
20260503215838 22 351 8.0 12.9 0.00 0.00 0.00 19 1013.9
20260503215336 21 323 6.4 11.3 0.00 0.00 0.00 19 1014.2